Delavan, Wisconsin, United States (53115)
Lat: 42.63N, Lon: 88.64W
Wx Zone: WIZ070
Local Info
Past Weather Observations for Today

NOTE: This archive is for the closest National Weather Service station to Delavan. Information may differ from the station used for current weather conditions.

Click here for Long-term Archive

Time Weather Temperature Dewpoint Humidity Pressure Winds Precip Visibility
15:15
Partly Cloudy
75°F / 24°C 61°F / 16°C 61% 29.89 in
(1012 mb)
SW 17.3 mph
(SW 28 kph)
- 10SM
14:55
Mostly Cloudy
77°F / 25°C 61°F / 16°C 57% 29.89 in
(1012 mb)
SSW 19.6 mph
(SSW 32 kph)
- 10SM
14:35
Mostly Cloudy
75°F / 24°C 61°F / 16°C 61% 29.86 in
(1011 mb)
SW 17.3 mph
(SW 28 kph)
- 10SM
14:15
Mostly Cloudy
75°F / 24°C 61°F / 16°C 61% 29.86 in
(1011 mb)
SW 17.3 mph
(SW 28 kph)
- 10SM
13:55
Partly Cloudy
75°F / 24°C 59°F / 15°C 57% 29.86 in
(1011 mb)
SSW 13.8 mph
(SSW 22 kph)
- 10SM
13:35
Mostly Cloudy
73°F / 23°C 61°F / 16°C 65% 29.86 in
(1011 mb)
SSW 17.3 mph
(SSW 28 kph)
- 10SM
13:15
Mostly Cloudy
73°F / 23°C 61°F / 16°C 65% 29.86 in
(1011 mb)
SSW 16.1 mph
(SSW 26 kph)
- 10SM
12:55
Mostly Cloudy
72°F / 22°C 61°F / 16°C 69% 29.86 in
(1011 mb)
SW 18.4 mph
(SW 30 kph)
- 10SM
12:35
Mostly Cloudy
72°F / 22°C 61°F / 16°C 69% 29.86 in
(1011 mb)
SW 19.6 mph
(SW 32 kph)
- 10SM
12:15
Mostly Cloudy
72°F / 22°C 61°F / 16°C 69% 29.86 in
(1011 mb)
SW 17.3 mph
(SW 28 kph)
- 10SM
11:55
Mostly Cloudy
72°F / 22°C 63°F / 17°C 73% 29.86 in
(1011 mb)
SW 19.6 mph
(SW 32 kph)
- 10SM
11:35
Overcast
Light Rain
68°F / 20°C 61°F / 16°C 78% 29.86 in
(1011 mb)
SSW 17.3 mph
(SSW 28 kph)
- 4SM
11:15
Mostly Cloudy
70°F / 21°C 61°F / 16°C 73% 29.86 in
(1011 mb)
SW 17.3 mph
(SW 28 kph)
- 10SM
10:55
Overcast
70°F / 21°C 61°F / 16°C 73% 29.83 in
(1010 mb)
SW 19.6 mph
(SW 32 kph)
- 10SM
10:35
Overcast
70°F / 21°C 61°F / 16°C 73% 29.83 in
(1010 mb)
SSW 16.1 mph
(SSW 26 kph)
- 10SM
10:15
Mostly Cloudy
70°F / 21°C 61°F / 16°C 73% 29.83 in
(1010 mb)
SW 21.9 mph
(SW 35 kph)
- 10SM
09:55
Mostly Cloudy
70°F / 21°C 63°F / 17°C 78% 29.83 in
(1010 mb)
SW 15 mph
(SW 24 kph)
- 10SM
09:35
Mostly Cloudy
70°F / 21°C 66°F / 19°C 88% 29.83 in
(1010 mb)
SW 18.4 mph
(SW 30 kph)
- 10SM
09:15
Overcast
68°F / 20°C 64°F / 18°C 88% 29.83 in
(1010 mb)
SW 11.5 mph
(SW 19 kph)
- 10SM
08:55
Mostly Cloudy
66°F / 19°C 64°F / 18°C 94% 29.83 in
(1010 mb)
SW 13.8 mph
(SW 22 kph)
- 10SM
08:35
Overcast
Light Rain
66°F / 19°C 64°F / 18°C 94% 29.8 in
(1009 mb)
SW 13.8 mph
(SW 22 kph)
- 10SM
08:15
Overcast
66°F / 19°C 64°F / 18°C 94% 29.8 in
(1009 mb)
SW 15 mph
(SW 24 kph)
- 7SM
07:55
Overcast
Rain
66°F / 19°C 64°F / 18°C 94% 29.8 in
(1009 mb)
SSE 17.3 mph
(SSE 28 kph)
- 2 1/2SM
07:35
Overcast
Light Rain
64°F / 18°C 64°F / 18°C 100% 29.8 in
(1009 mb)
S 16.1 mph
(S 26 kph)
- 5SM
07:15
Overcast
Rain
64°F / 18°C 64°F / 18°C 100% 29.8 in
(1009 mb)
S 12.7 mph
(S 20 kph)
- 4SM
06:55
Overcast
Fog And Mist
64°F / 18°C 64°F / 18°C 100% 29.8 in
(1009 mb)
S 17.3 mph
(S 28 kph)
- 5SM
06:35
Overcast
Drizzle
64°F / 18°C 63°F / 17°C 94% 29.8 in
(1009 mb)
S 10.4 mph
(S 17 kph)
- 4SM
06:15
Overcast
64°F / 18°C 63°F / 17°C 94% 29.8 in
(1009 mb)
S 10.4 mph
(S 17 kph)
- 10SM
05:55
Overcast
64°F / 18°C 63°F / 17°C 94% 29.8 in
(1009 mb)
S 9.2 mph
(S 15 kph)
- 10SM
05:35
Overcast
64°F / 18°C 63°F / 17°C 94% 29.8 in
(1009 mb)
S 8.1 mph
(S 13 kph)
- 10SM
05:15
Overcast
64°F / 18°C 63°F / 17°C 94% 29.8 in
(1009 mb)
S 9.2 mph
(S 15 kph)
- 10SM
04:55
Overcast
63°F / 17°C 63°F / 17°C 100% 29.8 in
(1009 mb)
S 9.2 mph
(S 15 kph)
- 10SM
04:35
Overcast
Fog And Mist
61°F / 16°C 61°F / 16°C 100% 29.8 in
(1009 mb)
S 5.8 mph
(S 9 kph)
- 4SM
04:15
Mostly Cloudy
Fog And Mist
59°F / 15°C 59°F / 15°C 100% 29.8 in
(1009 mb)
E 3.5 mph
(E 6 kph)
- 1 3/4SM
03:55
Mostly Cloudy
Fog And Mist
59°F / 15°C 59°F / 15°C 100% 29.8 in
(1009 mb)
Calm - 1SM
03:35
Mostly Cloudy
Drizzle
59°F / 15°C 59°F / 15°C 100% 29.83 in
(1010 mb)
Calm - 1SM
03:15
Overcast
Drizzle
59°F / 15°C 59°F / 15°C 100% 29.83 in
(1010 mb)
Calm - 1 1/2SM
02:55
Overcast
Fog And Mist
59°F / 15°C 59°F / 15°C 100% 29.83 in
(1010 mb)
Calm - 1 3/4SM
02:35
Overcast
Fog And Mist
59°F / 15°C 59°F / 15°C 100% 29.83 in
(1010 mb)
Calm - 1 1/2SM
02:15
Mostly Cloudy
Fog And Mist
59°F / 15°C 59°F / 15°C 100% 29.83 in
(1010 mb)
Calm - 1 1/4SM
01:55
Overcast
Fog And Mist
59°F / 15°C 59°F / 15°C 100% 29.83 in
(1010 mb)
Calm - 1 1/2SM
01:35
Overcast
Fog And Mist
59°F / 15°C 59°F / 15°C 100% 29.86 in
(1011 mb)
Calm - 1 1/2SM
01:15
Overcast
Fog And Mist
59°F / 15°C 59°F / 15°C 100% 29.86 in
(1011 mb)
Calm - 2SM
00:55
Overcast
Rain
59°F / 15°C 59°F / 15°C 100% 29.86 in
(1011 mb)
Calm - 1 1/2SM
00:35
Mostly Cloudy
Fog And Mist
59°F / 15°C 59°F / 15°C 100% 29.86 in
(1011 mb)
Calm - 1 1/2SM
00:15
Overcast
Drizzle
59°F / 15°C 59°F / 15°C 100% 29.89 in
(1012 mb)
Calm - 2SM
Time Weather Temperature Dewpoint Humidity Pressure Winds Precip Visibility


Weather for websites

WeatherForYou.com, LLC is not responsible for any damages or problems caused by this service. Current weather conditions are obtained from the closest station including government and personal stations which may have varying degrees of accuracy. Weather forecasts are derived from the NOAA NDFD. Like all things, this site belongs to Jesus Christ... He just trusts us to maintain it. If you have any questions or comments email webmaster@weatherforyou.com

Copyright © 2015, WeatherForYou.com LLC. All rights reserved.